COSMOS 2084 (20663 NORAD) Tracking and Keplerian Element Data

This shows tracking and keplerian element data for the satellite.

Feedback or suggestion? Click here.




ElementValue
Catalog20663
NameCOSMOS 2084
Epoch Orbit51837
Epoch Day195.84666216
Epoch Year2018
RAAN357.3085
Inclination62.7934
Eccentricity0.0120167
Argument of Perigee129.0097
Mean Anonmoly232.1771
Mean Motion14.91855272
Decay Rate3.5E-07
L11 20663U 90055A 18195.84666216 .00000035 00000-0 21253-4 0 9994
L22 20663 62.7934 357.3085 0120167 129.0097 232.1771 14.91855272518377

Live tracking and technical data element details for COSMOS 2084 (NORAD 20663). COSMOS 2084 can be tracked NOW for your location showing map with azimuth and elevation plus other details from your city location.

Track the satellite on the map from your city or location and see movement details for azimuth, elevation, latitude, longitude, range, height, and movement on the map or in text.







IsCatalogInMostPopularTable: catalog: 20663, numindb: 35
Update: records affected: 1



GetName: 20663 COSMOS 2084

Hit Count: updated at: Sun, 15 Jul 2018 23:09:09 GMT